ECHOSTAR 21 (42749 NORAD) Tracking and Keplerian Element Data

This shows tracking and keplerian element data for the satellite.

Feedback or suggestion? Click here.




ElementValue
Catalog42749
NameECHOSTAR 21
Epoch Orbit625
Epoch Day46.81666553
Epoch Year2019
RAAN315.5582
Inclination6.4421
Eccentricity0.0002136
Argument of Perigee18.4177
Mean Anonmoly115.781
Mean Motion1.00273164
Decay Rate6.5E-07
L11 42749U 17032A 19046.81666553 .00000065 00000-0 00000-0 0 9990
L22 42749 6.4421 315.5582 0002136 18.4177 115.7810 1.00273164 6254

Live tracking and technical data element details for ECHOSTAR 21 (NORAD 42749). ECHOSTAR 21 can be tracked NOW for your location showing map with azimuth and elevation plus other details from your city location.

Track the satellite on the map from your city or location and see movement details for azimuth, elevation, latitude, longitude, range, height, and movement on the map or in text.







IsCatalogInMostPopularTable: catalog: 42749, numindb: 176
Update: records affected: 1



GetName: 42749 ECHOSTAR 21

Hit Count: updated at: Sat, 16 Feb 2019 18:26:32 GMT